Calgary Springbank,

10:47 PM MST on November 17, 2017 (GMT -0700)
Calgary Springbank

Weather History for CYBW - June, 2013

Change the Weather History Date:

Wednesday, June 12, 2013

  Actual Average Record
Temperature  
Mean Temperature 52 °F -  
Max Temperature 66 °F 65 °F 71 °F (2012)
Min Temperature 37 °F 42 °F 32 °F (2000)
Degree Days  
Heating Degree Days 14    
Growing Degree Days 2 (Base 50)    
Moisture  
Dew Point 41 °F    
Average Humidity 62    
Maximum Humidity 100    
Minimum Humidity 20    
Precipitation  
Precipitation 0.00 in - - ()
Sea Level Pressure  
Sea Level Pressure 29.99 in    
Wind  
Wind Speed 5 mph ()    
Max Wind Speed 20 mph    
Max Gust Speed 30 mph    
Visibility 10.0 miles    
Events Fog , Rain , Thunderstorm    
Averages and records for this station are not official NWS values.
T = Trace of Precipitation, MM = Missing Value Source: Averaged Metar Reports

Daily Weather History Graph

Daily Weather History Graph

Search for Another Location

Airport or City:

Trip Planner

Search our weather history database for the weather conditions in past years. The results will help you decide how hot, cold, wet, or windy it might be!

Date:

Astronomy

Jun. 12, 2013 Rise Set
Actual Time 5:22 AM MDT 9:52 PM MDT
Civil Twilight 4:35 AM MDT 10:39 PM MDT
Nautical Twilight 3:25 AM MDT 11:49 PM MDT
Astronomical Twilight 2:09 AM MDT 1:05 AM MDT
Moon 9:26 AM MDT (6/12) No Moon Set
Length of Visible Light 18h 03m
Length of Day
16h 30m
Waxing Crescent, 14% of the Moon is Illuminated
Jun 12
Waxing Crescent
Jun 16
First Quarter
Jun 23
Full
Jun 29
Last Quarter
Jul 8
New

Hourly Weather History & Observations

Time (MDT) Temp. Windchill Dew Point Humidity Pressure Visibility Wind Dir Wind Speed Gust Speed Precip Events Conditions
5:00 AM 41.0 °F 35.2 °F 41.0 °F 100% 30.03 in 15.0 mi ESE 9.2 mph - N/A Fog Shallow Fog
6:00 AM 44 °F - 44 °F 98% 30.03 in 7 mi SSE 3.5 mph - -   Partly Cloudy
6:00 AM 44.6 °F 43.1 °F 42.8 °F 93% 30.03 in 8.0 mi South 3.5 mph - N/A   Scattered Clouds
7:00 AM 46.4 °F 45.2 °F 44.6 °F 93% 30.03 in 6.0 mi SSE 3.5 mph - N/A   Mostly Cloudy
7:27 AM 44.6 °F 41.4 °F 44.6 °F 100% 30.04 in 6.0 mi SSW 5.8 mph - N/A   Overcast
7:53 AM 46.4 °F - 44.6 °F 93% 30.03 in 8.0 mi SSW 2.3 mph - N/A   Mostly Cloudy
8:00 AM 46.4 °F - 42.8 °F 87% 30.03 in 10.0 mi Calm Calm - N/A   Mostly Cloudy
8:37 AM 46.4 °F - 42.8 °F 87% 30.03 in 8.0 mi Calm Calm - N/A   Overcast
9:00 AM 48.2 °F - 44.6 °F 87% 30.02 in 12.0 mi SW 3.5 mph - N/A   Overcast
10:00 AM 53.6 °F - 46.4 °F 77% 30.01 in 15.0 mi South 3.5 mph - N/A   Mostly Cloudy
11:00 AM 57.2 °F - 46.4 °F 67% 29.99 in 15.0 mi Variable 2.3 mph - N/A   Mostly Cloudy
12:00 PM 58 °F - 42 °F 44% 29.99 in 28 mi Calm Calm - -   Scattered Clouds
12:00 PM 59.0 °F - 41.0 °F 51% 29.99 in 30.0 mi Calm Calm - N/A   Mostly Cloudy
1:00 PM 62.6 °F - 35.6 °F 37% 29.96 in 30.0 mi South 3.5 mph - N/A   Mostly Cloudy
2:00 PM 64.4 °F - 37.4 °F 37% 29.96 in 30.0 mi SSE 11.5 mph - N/A   Scattered Clouds
3:00 PM 64.4 °F - 39.2 °F 40% 29.97 in 30.0 mi SSE 6.9 mph - N/A   Mostly Cloudy
4:00 PM 62.6 °F - 37.4 °F 39% 29.97 in 30.0 mi South 9.2 mph - N/A   Scattered Clouds
4:24 PM 60.8 °F - 35.6 °F 39% 29.99 in 30.0 mi SW 19.6 mph 29.9 mph N/A Rain Light Rain Showers
5:00 PM 64.4 °F - 39.2 °F 40% 29.97 in 30.0 mi South 8.1 mph - N/A   Scattered Clouds
6:00 PM 65 °F - 34 °F 20% 29.95 in 28 mi SSE 6.9 mph - -   Partly Cloudy
6:00 PM 66.2 °F - 33.8 °F 30% 29.94 in 30.0 mi SSE 5.8 mph - N/A   Partly Cloudy
7:00 PM 66.2 °F - 33.8 °F 30% 29.94 in 30.0 mi SE 9.2 mph - N/A   Partly Cloudy
8:00 PM 62.6 °F - 35.6 °F 37% 29.95 in 30.0 mi SSE 4.6 mph - N/A   Partly Cloudy
8:53 PM 55.4 °F - 41.0 °F 58% 29.99 in 30.0 mi North 17.3 mph - N/A Thunderstorm Thunderstorm
9:00 PM 55.4 °F - 42.8 °F 63% 29.99 in 30.0 mi North 12.7 mph 21.9 mph N/A Thunderstorm Thunderstorm
9:42 PM 51.8 °F - 41.0 °F 67% 30.01 in 30.0 mi NNW 12.7 mph - N/A   Scattered Clouds
10:00 PM 51.8 °F - 41.0 °F 67% 29.97 in 30.0 mi North 11.5 mph - N/A   Partly Cloudy